This is the latest recevied weather packets stored in our database for station/object VK5TRM-13. If no packets are shown the sender has not sent any weather packets the latest 10 day(s).
| Time | Temp. | Humidity | Pressure | Rain* | Wind** | Luminosity | Snow |
|---|---|---|---|---|---|---|---|
| 1777761005 | 12.22° C | 80% | 1013.1 hPa | 4.32 mm | - | - | - |
| 1777760105 | 12.22° C | 80% | 1013.1 hPa | 4.32 mm | - | - | - |
| 1777759205 | 11.67° C | 83% | 1012.8 hPa | 4.32 mm | - | - | - |
| 1777758305 | 11.67° C | 83% | 1012.8 hPa | 4.32 mm | - | - | - |
| 1777757404 | 11.67° C | 86% | 1012.8 hPa | 4.32 mm | - | - | - |
| 1777756505 | 11.67° C | 86% | 1012.8 hPa | 4.32 mm | - | - | - |
| 1777755605 | 11.67° C | 85% | 1012.4 hPa | 4.32 mm | - | - | - |
| 1777754705 | 11.67° C | 85% | 1012.4 hPa | 4.32 mm | - | - | - |
| 1777753805 | 12.22° C | 86% | 1012.4 hPa | 4.32 mm | - | - | - |
| 1777752905 | 12.22° C | 86% | 1012.4 hPa | 4.32 mm | - | - | - |
| 1777752004 | 13.33° C | 88% | 1012 hPa | 4.32 mm | - | - | - |
| 1777751104 | 13.33° C | 88% | 1012 hPa | 4.32 mm | - | - | - |
| 1777750205 | 13.33° C | 89% | 1011.6 hPa | 4.32 mm | - | - | - |
| 1777749304 | 13.33° C | 89% | 1011.6 hPa | 4.32 mm | - | - | - |
| 1777748404 | 13.33° C | 92% | 1011.3 hPa | 4.32 mm | - | - | - |
| 1777747505 | 13.33° C | 92% | 1011.3 hPa | 4.32 mm | - | - | - |
| 1777746605 | 13.89° C | 88% | 1011.4 hPa | 4.32 mm | - | - | - |
| 1777745705 | 13.89° C | 88% | 1011.4 hPa | 4.32 mm | - | - | - |
| 1777744805 | 14.44° C | 89% | 1011.4 hPa | 4.32 mm | - | - | - |
| 1777743906 | 14.44° C | 89% | 1011.4 hPa | 4.32 mm | - | - | - |
| 1777743005 | 14.44° C | 90% | 1011.4 hPa | 4.32 mm | - | - | - |
| 1777742105 | 14.44° C | 90% | 1011.4 hPa | 4.32 mm | - | - | - |
| 1777741205 | 15° C | 88% | 1011.5 hPa | 4.32 mm | - | - | - |
| 1777740305 | 15° C | 88% | 1011.5 hPa | 4.32 mm | - | - | - |
| 1777739405 | 15.56° C | 88% | 1011.5 hPa | 4.32 mm | - | - | - |
* Rain since midnight (hover to see other rain measurements)
** Current wind speed in m/s (hover to see current wind gust speed)